Aérodrome :
LOGIN :

S'inscrire | Disclaimer

   EN    FR    IT 

 










Légende :    VFR   VFR Marginal   IFR   IFR Intensif   IFR Très Intensif
Visi : 
Plafond : 
>= 8 km
>= 3000ft
5 à 8 km
1000 à 3000 ft
1500m à 5 km
500 à 1000 ft
800 à 1500m
200 à 500 ft
< 800m
< 200 ft
Symboles :   Orages  Brouillard  Fortes neiges  Fortes précipitations  Vent > 20 kt
SIGMETs :   Divers  Orages  Givrage  Turbulence  Onde Orograph.  Cendres Volcan.







- Altitude de l'aérodrome : 30 ft
- Code IATA : CFN


EIDL - Donegal

DERNIER METAR :
  • 210830Z 36014KT 9999 -RA FEW011 OVC024 08/06 Q1020

METARs EXPIRÉS :
  • 210800Z 35016KT 9999 -RA FEW017 OVC021 08/06 Q1020
  • 210730Z 35020KT 9999 -RA OVC009 08/07 Q1019
  • 210700Z 35017KT 8000 -RA OVC007 09/08 Q1018

TAF TAF EIDL
Valide du 21 à 09h jusqu'au 21 à 18h UTC


210800Z 2109/2118 36014KT 9999 -RA SCT010 BKN030
TEMPO 2109/2114 3000 RADZ BKN010
PROB30
TEMPO 2109/2114 BKN005
Pas de NOTAMs connus pour ce terrain.



MET'MAP, la Météo Aéronautique d'un coup d'oeil ! - Copyright ORBIFLY Décembre 2007 - Disclaimer

ORBIFLY MET'MAP TEAM :

Programmation & Développement : Alexandra Zaïnal
Conception & Développement : Baudouin d'Aumeries
Co-Programmation & Développement : Marc-Olivier Méhu
Soutien technique & logistique : Manuel Goepfert

Contact : metmap@orbifly.com




SOURCES & CREDITS :

   NOAA